Theta_e
333 343 348 349 346 342 341 343 347 348 346 346 344 341 340 340 338 340 336 338 338 336 337 334 339 339 335 336 336 336 336 338 339 338 336 336 336 336 336 335 335 333 335
336 344 347 349 347 343 342 344 347 347 347 345 344 341 338 338 337 337 338 337 337 334 334 335 336 337 336 335 334 333 334 336 336 336 335 335 336 335 335 335 335 333 334
337 344 347 347 346 345 343 344 347 347 347 346 343 341 337 337 336 335 335 334 335 333 334 335 335 335 335 334 333 332 333 334 333 333 332 333 333 333 335 334 333 333 332
338 344 346 344 346 344 343 346 348 347 347 345 344 341 337 336 335 334 334 335 334 334 334 335 335 333 333 332 332 334 334 332 332 330 331 331 331 332 332 331 331 331 331
339 343 344 343 345 344 344 347 348 347 346 346 343 339 337 335 335 335 334 337 334 333 333 333 333 332 332 331 331 333 334 332 330 327 328 329 330 329 329 329 328 329 329
339 342 342 344 345 345 345 347 347 346 346 346 344 339 337 335 337 336 334 334 334 333 332 332 332 331 330 329 328 329 328 330 325 326 327 327 328 328 328 327 327 327 327
338 340 343 343 344 344 344 346 346 346 345 343 340 338 339 339 337 336 334 333 333 333 332 331 330 328 327 326 325 325 325 322 323 325 325 325 326 330 328 329 328 328 329
336 338 342 337 340 342 342 345 345 345 345 344 342 338 340 338 337 336 335 334 334 334 332 330 329 326 324 323 323 323 322 321 319 319 319 323 322 328 326 325 327 329 329
336 337 340 341 339 335 338 339 342 343 342 342 340 338 338 336 336 335 334 335 332 331 330 329 327 325 323 322 323 324 324 323 320 321 320 322 320 327 329 327 328 329 330
335 336 337 339 339 340 340 333 335 338 338 339 337 335 333 332 333 333 331 333 332 331 330 328 326 325 323 323 324 325 324 321 319 320 322 323 323 327 330 330 330 330 331
332 334 336 337 337 338 338 335 331 333 333 333 332 329 329 334 334 331 328 331 333 332 330 328 325 324 325 324 324 324 323 324 322 322 323 321 326 330 331 332 332 332 332
328 331 334 336 336 336 336 337 338 338 337 336 335 334 334 333 333 330 325 326 329 329 330 328 326 326 323 324 323 321 324 323 322 322 323 321 327 330 332 333 333 334 334
328 330 332 333 333 335 335 335 336 338 337 337 335 334 333 331 330 330 329 328 330 323 327 327 327 326 324 323 323 324 323 323 323 323 322 322 326 330 332 333 334 335 335
327 328 330 331 331 330 332 332 333 334 335 335 333 333 331 330 328 327 326 326 327 327 326 324 323 322 321 321 322 323 323 323 324 324 323 319 323 329 332 334 335 336 336
327 327 328 330 330 329 331 331 331 332 333 334 331 330 331 329 327 326 325 324 325 326 325 322 320 319 319 321 321 322 322 323 323 324 325 317 321 327 331 334 335 335 335
328 327 328 328 330 330 330 329 329 330 331 331 329 329 329 328 327 324 323 322 323 324 324 323 320 319 319 320 321 321 322 323 324 324 325 326 321 325 329 333 334 334 333
329 330 329 328 329 330 330 330 330 330 330 329 329 328 327 326 325 323 323 322 322 322 322 321 320 319 319 320 320 321 322 323 323 324 326 327 327 321 324 330 332 332 333
327 329 329 329 328 328 329 330 329 329 328 329 329 328 326 325 324 322 322 321 322 321 321 320 320 319 319 320 320 321 322 323 324 325 326 327 327 327 325 326 330 332 333
327 328 329 329 328 328 328 328 329 328 327 328 328 327 326 324 323 323 322 322 321 321 320 320 319 319 319 319 319 320 321 322 323 324 325 325 326 327 328 322 322 326 333
327 327 329 329 329 328 328 327 327 326 326 328 327 326 324 324 323 322 322 321 321 320 320 319 319 318 319 319 317 318 321 323 324 324 324 325 326 326 326 325 325 323 324
315 324 326 327 328 328 326 324 323 322 323 325 325 325 324 324 323 322 322 320 320 319 320 319 318 318 317 318 317 320 322 324 324 325 325 325 325 325 323 322 316 315 316
303 306 320 325 326 327 327 326 326 325 325 324 324 324 324 323 323 322 322 320 320 319 319 318 318 317 318 319 318 319 316 319 321 322 323 323 322 322 317 312 309 308 307
298 299 308 317 322 325 326 327 326 325 324 322 323 323 323 323 323 323 322 322 321 320 319 319 319 318 317 319 320 320 315 314 317 320 318 318 317 311 307 305 304 303 302
296 299 300 308 313 318 321 325 324 322 320 322 323 324 324 324 323 323 323 323 322 321 321 320 320 320 320 318 320 321 323 321 316 313 314 313 310 305 303 301 299 299 298
296 297 299 301 303 310 314 316 319 323 324 325 324 324 324 324 324 323 323 322 322 322 322 321 321 320 320 320 320 320 321 322 322 317 310 306 303 301 299 297 296 295 295
292 297 297 297 298 303 308 309 313 316 323 323 323 322 322 324 324 324 323 323 323 322 322 322 321 322 322 322 322 322 321 318 318 318 317 308 299 296 296 295 293 293 293
Wind_Speed
8 14 17 20 20 18 16 16 15 16 16 16 17 15 15 14 13 11 12 12 10 11 11 11 10 16 13 11 11 12 12 12 12 13 13 13 13 12 12 11 9 10 11
15 16 16 20 20 18 17 15 14 16 17 17 17 15 15 14 13 12 11 10 12 12 11 11 10 15 12 10 10 7 8 10 12 14 12 10 9 11 11 9 9 10 10
17 16 17 19 19 17 17 16 15 17 18 18 18 16 14 14 13 13 12 11 11 12 12 12 13 13 11 9 7 6 8 9 10 9 7 5 6 8 9 8 9 9 9
16 14 17 18 19 18 17 15 16 18 18 18 19 17 15 14 13 13 13 11 12 11 11 12 11 11 9 8 7 8 10 9 8 6 4 4 5 6 7 7 7 7 7
15 14 14 17 19 18 17 15 17 17 19 20 19 17 15 15 14 14 12 12 12 11 11 11 11 10 8 7 7 8 8 8 7 5 4 4 3 4 5 5 5 5 5
15 13 14 18 19 17 16 15 15 18 18 19 17 16 16 16 12 13 14 12 12 12 12 11 10 9 7 6 6 7 6 6 5 4 3 3 2 2 3 3 3 3 3
14 12 14 17 18 18 17 15 15 16 16 17 18 17 16 15 14 13 12 13 12 12 11 10 9 7 6 6 6 6 7 6 2 2 0 1 1 3 0 1 1 1 1
13 12 13 13 14 17 18 15 15 16 17 18 16 17 16 15 15 13 13 12 11 11 10 9 8 6 5 5 5 6 5 4 2 2 2 3 4 5 2 1 2 2 2
12 12 12 12 13 12 13 14 13 13 15 16 17 17 15 15 14 13 12 11 12 10 10 8 7 5 4 3 4 4 3 3 3 3 3 3 4 5 4 2 3 3 3
9 12 12 10 12 12 12 11 11 12 13 12 15 12 12 12 11 12 9 11 12 11 10 8 7 5 4 3 2 1 2 3 3 3 3 3 5 6 6 4 3 3 3
11 12 12 11 10 12 10 10 10 13 14 13 13 12 11 9 11 12 8 9 10 10 10 9 8 6 4 2 2 2 3 3 3 3 3 5 6 7 7 7 4 3 3
13 13 12 13 13 10 9 10 10 9 10 10 9 11 9 10 9 9 9 10 10 9 9 9 8 6 4 2 2 3 2 3 3 4 3 7 8 7 7 7 5 4 4
9 10 11 13 12 12 10 8 6 6 7 7 12 11 10 8 7 6 5 6 6 8 6 6 5 3 5 4 4 3 3 4 3 4 5 7 7 7 6 6 6 6 5
13 12 13 13 12 14 11 9 10 8 7 7 9 12 9 6 8 8 6 7 6 5 6 5 4 5 6 6 5 5 5 4 3 3 4 6 7 7 7 6 6 6 6
14 14 15 13 14 13 13 10 11 11 9 10 10 11 10 9 9 8 7 6 6 6 6 5 5 5 5 5 5 5 6 6 5 4 3 7 8 7 7 7 7 5 3
15 15 15 16 14 15 13 16 11 10 11 9 9 10 13 10 9 9 8 8 7 7 6 6 6 5 5 4 6 5 6 6 6 7 5 4 7 9 9 9 6 3 1
15 15 15 16 16 16 15 11 10 9 11 10 9 12 13 11 12 11 9 8 8 7 8 6 5 5 4 4 6 6 6 8 7 7 6 4 3 6 7 6 3 2 4
15 16 17 13 15 16 16 13 10 10 10 10 10 10 15 14 13 11 9 9 8 7 7 7 6 6 6 6 6 6 6 6 7 7 5 4 4 3 3 1 4 6 6
14 16 16 17 17 18 17 12 12 12 11 11 10 10 14 15 14 11 9 9 9 7 7 7 6 6 6 6 6 6 7 7 7 6 7 6 6 4 2 6 8 7 8
10 12 14 14 16 14 11 11 9 9 11 11 11 11 14 12 14 12 9 10 10 8 8 8 9 6 6 6 5 6 7 7 6 7 7 5 4 4 7 8 8 7 11
22 7 12 12 13 9 9 10 11 13 11 11 11 14 14 13 15 14 10 10 9 10 10 10 8 9 7 5 3 5 6 8 8 5 5 4 4 5 9 9 6 5 7
19 23 16 11 10 9 9 8 8 9 11 12 9 12 16 16 15 13 13 11 11 8 10 10 10 5 6 7 4 2 3 1 4 4 2 3 8 8 9 9 10 9 8
17 21 19 18 9 9 10 10 9 7 7 8 11 12 14 16 15 15 14 12 12 11 9 11 11 12 8 7 11 4 3 4 3 3 6 6 8 7 8 9 11 10 9
8 12 19 19 16 10 11 10 14 11 10 11 11 10 10 16 16 16 16 14 13 11 12 10 10 10 9 8 4 8 8 2 3 4 4 5 8 9 8 7 8 9 8
7 7 10 14 16 15 12 11 13 12 10 9 10 13 14 13 16 17 16 15 14 10 11 12 12 12 9 8 7 3 8 7 6 3 4 4 6 6 7 6 7 6 9
7 6 7 10 12 13 13 11 13 19 14 10 10 10 11 10 11 14 15 15 15 13 12 12 12 13 12 11 9 9 7 5 7 6 4 5 6 5 6 6 6 5 6
Wind_Direction
197 171 167 160 156 156 158 160 155 146 145 139 135 129 130 124 119 121 125 120 122 101 108 118 93 92 95 86 67 62 61 61 56 84 78 79 82 78 74 67 62 73 71
155 168 169 160 159 160 161 164 163 155 149 146 132 134 136 134 135 132 133 129 117 120 121 128 114 104 99 88 72 59 68 71 59 57 60 59 91 98 96 88 83 77 73
159 164 164 160 159 160 164 165 171 162 157 148 138 139 139 139 142 143 138 141 130 135 131 131 131 117 109 102 94 89 101 95 85 78 70 81 93 91 88 74 81 83 78
162 164 164 160 160 163 167 168 172 170 160 155 144 143 147 145 146 148 142 144 143 133 135 137 137 127 120 107 95 106 120 107 92 78 82 73 79 92 88 84 81 76 67
165 165 164 161 163 165 169 171 172 172 168 149 148 153 152 150 155 154 154 153 143 146 145 144 141 139 127 113 96 104 113 110 96 82 67 56 49 77 74 70 69 68 54
165 166 166 165 165 167 172 173 175 168 163 153 147 160 158 159 147 160 163 157 156 152 152 149 149 146 138 115 95 87 88 97 98 87 70 31 8 34 80 80 71 61 44
165 166 170 171 169 168 173 176 170 169 162 151 164 166 162 161 160 159 167 168 167 171 157 154 156 148 129 105 89 81 72 83 124 116 144 264 294 310 190 171 159 98 337
169 169 172 176 175 171 173 180 179 175 167 159 169 173 165 166 165 168 169 171 176 153 161 166 160 143 121 104 96 89 89 106 144 185 235 255 262 279 276 287 263 272 279
173 175 180 179 179 173 174 178 179 178 179 167 166 177 169 167 169 175 173 178 177 172 177 176 165 149 139 119 98 106 115 137 188 207 239 253 263 273 289 307 279 264 267
185 184 185 183 175 181 181 174 180 183 177 173 165 168 164 165 170 169 183 177 182 185 188 187 180 173 170 136 150 165 180 160 202 230 245 256 267 265 266 273 279 266 268
206 194 189 189 187 179 183 181 182 178 178 169 167 168 163 175 178 174 171 178 187 189 199 200 197 194 188 190 227 227 250 212 216 230 241 249 266 266 250 259 277 287 295
223 207 193 192 193 192 185 185 187 185 183 175 178 172 179 176 180 180 181 187 190 189 203 209 213 204 203 216 226 251 223 222 229 242 247 255 265 274 262 264 273 275 270
231 217 215 190 193 203 205 190 191 188 182 177 177 173 183 173 180 185 186 195 196 200 208 214 221 218 221 219 221 227 240 242 239 243 250 260 273 280 284 276 279 280 274
211 217 216 209 199 201 203 203 199 190 189 182 180 174 180 176 183 187 192 196 200 203 208 213 217 227 231 228 231 242 242 244 249 263 270 270 271 273 279 277 275 280 286
219 215 207 214 208 208 204 198 203 202 191 192 184 177 182 183 188 191 197 196 203 202 212 216 223 234 240 241 246 250 258 262 261 259 256 246 252 256 257 260 264 273 282
218 217 211 207 213 209 210 206 204 202 199 190 181 184 184 183 189 195 198 204 208 207 212 219 222 231 238 245 256 253 262 267 262 256 250 254 239 246 251 254 260 255 171
232 209 215 219 205 208 207 205 203 200 200 201 184 189 189 187 189 194 199 205 213 211 214 215 224 232 242 240 249 247 242 244 249 251 253 254 256 242 253 264 254 159 138
242 222 203 204 215 213 211 203 202 203 201 196 195 191 192 193 193 192 199 209 211 210 211 212 215 222 230 233 245 248 253 256 250 246 247 239 238 244 243 269 153 129 133
247 233 220 205 210 219 216 211 208 204 214 205 196 201 195 193 195 198 201 204 199 207 215 217 222 222 228 237 246 258 260 258 256 252 242 231 227 224 182 110 104 112 118
266 239 225 214 206 218 218 221 210 211 211 208 205 201 199 198 195 198 205 203 197 204 209 208 220 214 231 239 251 261 262 257 252 246 250 243 228 206 144 125 104 81 77
346 273 244 220 211 195 209 206 213 213 213 210 203 201 197 204 201 197 200 204 200 204 210 205 207 217 222 224 248 261 255 246 250 259 252 240 201 142 136 124 104 85 70
2 348 306 243 227 204 217 217 215 215 222 218 204 199 202 203 203 200 195 196 197 205 208 204 200 204 220 192 203 225 271 161 88 38 61 138 129 122 104 105 100 87 84
6 344 336 333 297 251 223 230 225 221 205 200 210 214 205 202 199 201 201 199 193 195 205 203 202 204 209 202 207 197 184 214 134 50 55 85 96 92 94 98 95 88 80
15 342 346 330 331 330 348 255 218 216 201 208 214 219 212 201 201 201 204 204 197 196 204 200 196 204 205 212 202 223 241 226 166 145 88 65 71 79 77 77 74 80 78
338 353 328 331 331 323 332 325 305 221 225 214 203 199 203 204 206 206 202 201 200 199 202 199 197 202 203 209 212 176 221 224 231 177 157 138 84 63 71 74 77 74 73
309 310 321 320 327 324 314 310 312 317 224 218 206 198 196 199 206 209 206 204 206 199 195 199 204 203 207 210 212 210 206 191 209 202 193 147 119 81 80 67 80 65 76